Tracking 28529 objects as of 25-Feb-2024
HD Live streaming from Space Station
objects crossing your sky now

PAINANI-2

Track PAINANI-2 now!
10-day predictions


NORAD ID: 48928
Int'l Code: 2021-059BB
Perigee: 452.1 km
Apogee: 463.5 km
Inclination: 97.6 °
Period: 93.6 minutes
Semi major axis: 6828 km
RCS: Unknown
Launch date: June 30, 2021
Source: Mexico (MEX)
Launch site: AIR FORCE EASTERN TEST RANGE (AFETR)
Your satellite tracking list
Your tracking list is empty




NASA's NSSDC Master Catalog

Two Line Element Set (TLE):
1 48928U 21059BB  24055.35932832  .00033645  00000-0  88544-3 0  9992
2 48928  97.6260 203.8509 0008357  97.1227 263.0968 15.38452308147950
Source of the keplerian elements: AFSPC